Location: LDNL
(36.4545°S, 141.6685°E)
Time: 15:13:01
(UTC+11:00)

SR - All Passes

Search period start: 22 March 2023 00:00
Search period end: 01 April 2023 00:00
Orbit: 583 x 866 km, 66.7° (Epoch: 21 March)

Date Brightness Start Highest point End Pass type
(mag) Time Alt. Az. Time Alt. Az. Time Alt. Az.
22 Mar - 01:11:01 10° SSW 01:16:33 40° SE 01:21:47 10° NE visible
22 Mar - 02:53:31 10° SW 02:58:21 28° WNW 03:02:56 10° NNW night (unlit)
22 Mar - 15:37:21 10° N 15:42:15 42° ENE 15:47:33 10° SE daylight
22 Mar - 17:19:55 10° WNW 17:24:27 27° SW 17:29:17 10° S daylight
23 Mar - 00:20:57 10° S 00:25:28 22° SE 00:29:49 10° E visible
23 Mar - 02:02:13 10° SW 02:07:56 58° WNW 02:13:18 10° N night (unlit)
23 Mar - 14:48:13 10° NNE 14:51:57 20° ENE 14:55:53 10° ESE daylight
23 Mar - 16:28:18 10° NW 16:33:28 51° WSW 16:39:03 10° SSE daylight
23 Mar - 23:31:45 10° SSE 23:34:09 12° SE 23:36:30 10° ESE visible
24 Mar - 01:11:26 10° SSW 01:17:18 71° ESE 01:22:47 10° NE visible
24 Mar - 02:55:33 10° WSW 02:58:34 15° WNW 03:01:31 10° NW night (unlit)
24 Mar - 15:37:27 10° NNW 15:42:43 79° ENE 15:48:26 10° SSE daylight
24 Mar - 17:22:02 10° W 17:25:29 17° SW 17:29:05 10° S daylight
25 Mar - 00:21:02 10° SSW 00:26:25 36° SE 00:31:31 10° ENE visible
25 Mar - 02:03:18 10° SW 02:08:20 31° WNW 02:13:06 10° NNW night (unlit)
25 Mar - 14:47:24 10° N 14:52:13 37° ENE 14:57:23 10° SE daylight
25 Mar - 16:29:34 10° WNW 16:34:17 30° SW 16:39:19 10° S daylight
25 Mar - 23:31:03 10° S 23:35:17 20° SE 23:39:22 10° E visible
26 Mar - 01:12:06 10° SSW 01:17:53 66° WNW 01:23:16 10° NNE visible
26 Mar - 13:58:31 10° NE 14:01:56 17° ENE 14:05:29 10° ESE daylight
26 Mar - 15:38:05 10° NW 15:43:19 58° WSW 15:49:01 10° SSE daylight
26 Mar - 17:26:15 10° SW 17:26:42 10° SW 17:27:08 10° SW daylight
26 Mar - 22:42:14 10° SSE 22:43:55 11° SE 22:45:33 10° ESE visible
27 Mar - 00:21:22 10° SSW 00:27:11 63° ESE 00:32:38 10° NE visible
27 Mar - 02:05:03 10° WSW 02:08:33 17° WNW 02:11:57 10° NW night (unlit)
27 Mar - 14:47:22 10° NNW 14:52:36 70° ENE 14:58:19 10° SSE daylight
27 Mar - 16:31:30 10° W 16:35:17 18° SW 16:39:13 10° S daylight
27 Mar - 23:31:01 10° S 23:36:15 32° SE 23:41:12 10° ENE visible
28 Mar - 01:13:04 10° SW 01:18:17 35° WNW 01:23:10 10° N night (unlit)
28 Mar - 13:57:28 10° N 14:02:09 33° ENE 14:07:09 10° SE daylight
28 Mar - 15:39:13 10° WNW 15:44:06 33° SW 15:49:18 10° S daylight
28 Mar - 22:41:08 10° S 22:45:04 18° SE 22:48:52 10° E visible
29 Mar - 00:21:57 10° SSW 00:27:46 75° WNW 00:33:12 10° NNE visible
29 Mar - 13:08:54 10° NE 13:11:53 15° ENE 13:14:59 10° ESE daylight
29 Mar - 14:47:52 10° NW 14:53:10 66° WSW 14:58:55 10° SSE daylight
29 Mar - 16:34:39 10° WSW 16:36:25 11° SW 16:38:13 10° SSW daylight
29 Mar - 23:31:17 10° SSW 23:37:02 55° ESE 23:42:24 10° NE visible
30 Mar - 01:14:36 10° WSW 01:18:30 19° WNW 01:22:15 10° NNW night (unlit)
30 Mar - 13:57:16 10° NNW 14:02:29 62° ENE 14:08:09 10° SE daylight
30 Mar - 15:40:58 10° W 15:45:02 21° SW 15:49:17 10° S daylight
30 Mar - 22:40:59 10° S 22:46:02 29° SE 22:50:50 10° ENE visible
31 Mar - 00:22:49 10° SW 00:28:11 40° WNW 00:33:12 10° N visible
31 Mar - 13:07:31 10° NNE 13:12:03 29° ENE 13:16:52 10° SE daylight
31 Mar - 14:48:52 10° WNW 14:53:54 37° SW 14:59:15 10° SSE daylight
31 Mar - 21:51:13 10° S 21:54:48 16° SE 21:58:15 10° E visible
31 Mar - 23:31:48 10° SSW 23:37:38 84° WNW 23:43:03 10° NNE visible
